contact:dominique.lefevre@mio.osupytheas.fr, maurice.libes@osupytheas.fr, didier.mallarino@osupytheas.fr
Project:EMSO http://www.emso-fr.org/EMSO-France
Depth: 2436.0 m
Title:EMSO Ligure Ouest : Data MII capteur AQUADOPP
Date,Latitude,Longitude,X_East,Y_North,Z_Up,Amplitude_X,Amplitude_Y,Amplitude_Z,Batterie,SoundSpeed,Heading,Pitch,Roll,Pressure,TIS,Speed,Direction
, degrees North, degrees East, m.s-1, m.s-1,m.s-1, 1, 1, 1, Volt, m.s-1, degree, degree, degree, dbar, degree_C, m.s-1, degree
2020-12-05T00:04:03,42.805,6.029,0.042,0.012,0.051,100.0,106.0,99.0,13.4,1505.3,326.0,-0.7,1.8,2470.512,13.31,0.043,74.1
2020-12-05T00:07:03,42.805,6.029,0.009,0.001,-0.02,101.0,107.0,99.0,13.4,1505.3,324.3,-0.8,1.8,2470.479,13.32,0.009,83.7
2020-12-05T00:10:03,42.805,6.029,0.037,-0.015,0.049,99.0,107.0,100.0,13.4,1505.3,326.3,-0.7,1.8,2470.478,13.32,0.039,112.1
2020-12-05T00:13:03,42.805,6.029,0.03,0.012,0.034,100.0,107.0,99.0,13.3,1505.3,326.2,-0.7,1.8,2470.493,13.33,0.032,68.2
2020-12-05T00:16:03,42.805,6.029,0.042,-0.013,0.05,101.0,107.0,99.0,13.4,1505.3,327.3,-0.7,1.8,2470.5,13.33,0.043,107.2
2020-12-05T00:19:03,42.805,6.029,0.0,0.009,0.008,102.0,106.0,100.0,13.3,1505.3,328.0,-0.7,1.8,2470.455,13.33,0.009,0.0
2020-12-05T00:22:03,42.805,6.029,-0.023,0.005,0.012,100.0,105.0,98.0,13.4,1505.4,326.7,-0.7,1.8,2470.47,13.34,0.023,282.3
2020-12-05T00:25:03,42.805,6.029,-0.003,0.012,0.027,100.0,107.0,98.0,13.4,1505.4,324.9,-0.7,1.8,2470.454,13.34,0.012,346.0
2020-12-05T00:28:03,42.805,6.029,0.002,-0.012,-0.012,100.0,106.0,99.0,13.4,1505.4,326.6,-0.7,1.8,2470.469,13.34,0.012,170.5
2020-12-05T00:31:03,42.805,6.029,0.05,0.0,0.036,102.0,106.0,97.0,13.4,1505.4,327.8,-0.7,1.9,2470.425,13.34,0.05,90.0
2020-12-05T00:34:03,42.805,6.029,0.046,0.0,0.05,101.0,106.0,99.0,13.3,1505.4,325.4,-0.7,1.8,2470.391,13.34,0.046,90.0
2020-12-05T00:37:03,42.805,6.029,0.032,0.016,0.08,101.0,107.0,99.0,13.3,1505.4,325.8,-0.7,1.9,2470.423,13.34,0.035,63.4
2020-12-05T00:40:03,42.805,6.029,0.058,-0.021,0.041,100.0,107.0,99.0,13.3,1505.4,328.2,-0.7,1.8,2470.485,13.34,0.061,109.9
2020-12-05T00:43:03,42.805,6.029,0.05,0.003,0.07,100.0,106.0,99.0,13.3,1505.4,326.9,-0.7,1.8,2470.471,13.34,0.05,86.6
2020-12-05T00:46:03,42.805,6.029,0.052,0.021,0.039,100.0,107.0,99.0,13.4,1505.4,324.0,-0.7,1.8,2470.452,13.35,0.056,68.0
2020-12-05T00:49:03,42.805,6.029,0.006,0.0,-0.001,100.0,107.0,98.0,13.3,1505.4,325.4,-0.7,1.8,2470.399,13.35,0.006,90.0
2020-12-05T00:52:03,42.805,6.029,-0.021,0.016,0.0,100.0,107.0,98.0,13.3,1505.4,322.5,-0.7,1.8,2470.444,13.35,0.026,307.3
2020-12-05T00:55:03,42.805,6.029,-0.021,0.004,0.023,100.0,107.0,99.0,13.4,1505.4,324.8,-0.7,1.8,2470.39,13.35,0.021,280.8
2020-12-05T00:58:03,42.805,6.029,0.013,0.012,0.009,101.0,106.0,99.0,13.4,1505.4,324.8,-0.7,1.8,2470.421,13.35,0.017,47.3
2020-12-05T01:04:03,42.805,6.029,0.029,0.005,0.047,101.0,108.0,99.0,13.4,1505.3,325.7,-0.8,1.8,2470.452,13.33,0.029,80.2
2020-12-05T01:07:03,42.805,6.029,0.01,-0.01,0.019,102.0,106.0,100.0,13.4,1505.4,323.3,-0.7,1.8,2470.468,13.34,0.014,135.0
2020-12-05T01:10:03,42.805,6.029,0.001,-0.01,-0.003,100.0,107.0,98.0,13.4,1505.4,325.5,-0.7,1.9,2470.462,13.34,0.01,174.3
2020-12-05T01:13:03,42.805,6.029,0.005,0.008,-0.001,99.0,108.0,98.0,13.4,1505.4,324.6,-0.7,1.9,2470.46,13.34,0.009,32.0
2020-12-05T01:16:03,42.805,6.029,0.032,0.0,0.014,104.0,110.0,97.0,13.4,1505.4,328.0,-0.7,1.8,2470.445,13.34,0.032,90.0
2020-12-05T01:19:03,42.805,6.029,0.038,0.015,0.075,100.0,109.0,99.0,13.4,1505.4,323.1,-0.7,1.8,2470.471,13.35,0.04,68.5
2020-12-05T01:22:03,42.805,6.029,0.05,0.026,0.062,102.0,107.0,99.0,13.4,1505.4,325.6,-0.7,1.8,2470.417,13.35,0.056,62.5
2020-12-05T01:25:03,42.805,6.029,0.047,0.013,0.046,101.0,108.0,98.0,13.4,1505.4,326.5,-0.7,1.8,2470.462,13.35,0.048,74.5
2020-12-05T01:28:03,42.805,6.029,0.037,0.03,0.061,101.0,108.0,99.0,13.3,1505.4,324.7,-0.7,1.8,2470.441,13.35,0.047,51.0
2020-12-05T01:31:03,42.805,6.029,0.038,-0.002,0.049,101.0,109.0,98.0,13.3,1505.4,324.2,-0.7,1.8,2470.488,13.35,0.038,93.0
2020-12-05T01:34:03,42.805,6.029,0.025,0.007,0.023,100.0,109.0,100.0,13.3,1505.4,325.1,-0.7,1.9,2470.466,13.35,0.025,74.4
2020-12-05T01:37:03,42.805,6.029,0.022,-0.021,0.015,101.0,108.0,99.0,13.3,1505.4,324.4,-0.7,1.8,2470.413,13.35,0.03,133.7
2020-12-05T01:40:03,42.805,6.029,-0.004,-0.005,0.051,101.0,107.0,99.0,13.3,1505.4,326.4,-0.7,1.9,2470.406,13.35,0.006,218.7
2020-12-05T01:43:03,42.805,6.029,0.028,0.023,0.056,100.0,107.0,99.0,13.4,1505.4,326.8,-0.7,1.8,2470.431,13.34,0.036,50.6
2020-12-05T01:46:03,42.805,6.029,0.041,-0.008,0.039,101.0,108.0,99.0,13.4,1505.4,325.1,-0.7,1.8,2470.406,13.34,0.041,101.0
2020-12-05T01:49:03,42.805,6.029,0.013,-0.011,0.001,100.0,107.0,99.0,13.4,1505.4,323.3,-0.7,1.8,2470.423,13.34,0.017,130.2
2020-12-05T01:52:03,42.805,6.029,0.014,0.006,0.007,102.0,105.0,99.0,13.4,1505.4,323.1,-0.7,1.8,2470.389,13.34,0.015,66.8
2020-12-05T01:55:03,42.805,6.029,0.029,0.008,0.025,102.0,107.0,99.0,13.4,1505.4,324.0,-0.7,1.9,2470.348,13.34,0.03,74.6
2020-12-05T01:58:03,42.805,6.029,-0.02,-0.001,0.012,101.0,108.0,99.0,13.4,1505.4,326.9,-0.7,1.8,2470.387,13.34,0.02,267.1
2020-12-05T02:04:03,42.805,6.029,-0.031,0.002,-0.021,100.0,108.0,100.0,13.4,1505.3,326.2,-0.7,1.8,2470.405,13.32,0.031,273.7
2020-12-05T02:07:03,42.805,6.029,-0.007,-0.002,0.002,102.0,107.0,100.0,13.3,1505.3,326.6,-0.7,1.8,2470.427,13.33,0.007,254.1
2020-12-05T02:10:03,42.805,6.029,-0.019,-0.001,0.006,100.0,108.0,100.0,13.4,1505.3,324.4,-0.7,1.8,2470.415,13.33,0.019,267.0
2020-12-05T02:13:03,42.805,6.029,-0.032,0.009,-0.03,102.0,108.0,99.0,13.3,1505.4,324.8,-0.7,1.8,2470.437,13.34,0.033,285.7
2020-12-05T02:16:03,42.805,6.029,-0.018,0.014,0.0,101.0,108.0,100.0,13.3,1505.4,325.4,-0.7,1.8,2470.38,13.34,0.022,307.9
2020-12-05T02:19:03,42.805,6.029,-0.019,-0.013,-0.054,101.0,107.0,99.0,13.4,1505.4,323.9,-0.7,1.8,2470.396,13.34,0.023,235.6
2020-12-05T02:22:03,42.805,6.029,-0.002,0.0,0.022,101.0,107.0,99.0,13.4,1505.4,324.7,-0.7,1.8,2470.344,13.34,0.002,270.0
2020-12-05T02:25:03,42.805,6.029,-0.007,0.007,0.023,102.0,107.0,98.0,13.4,1505.4,325.4,-0.7,1.8,2470.394,13.34,0.009,315.0
2020-12-05T02:28:03,42.805,6.029,-0.002,-0.015,0.014,99.0,108.0,99.0,13.4,1505.4,323.6,-0.7,1.8,2470.375,13.34,0.015,187.6
2020-12-05T02:31:03,42.805,6.029,-0.001,0.024,0.021,101.0,107.0,99.0,13.4,1505.4,324.6,-0.7,1.8,2470.385,13.34,0.024,357.6
2020-12-05T02:34:03,42.805,6.029,0.0,-0.021,0.01,101.0,107.0,98.0,13.3,1505.4,325.1,-0.7,1.8,2470.408,13.34,0.021,180.0
2020-12-05T02:37:03,42.805,6.029,-0.008,-0.009,-0.005,100.0,107.0,99.0,13.3,1505.4,326.5,-0.7,1.8,2470.422,13.34,0.012,221.6
2020-12-05T02:40:03,42.805,6.029,-0.009,0.003,-0.027,100.0,108.0,99.0,13.4,1505.4,323.4,-0.7,1.8,2470.379,13.34,0.009,288.4
2020-12-05T02:43:03,42.805,6.029,0.018,-0.004,0.004,101.0,108.0,99.0,13.4,1505.4,325.3,-0.7,1.8,2470.393,13.34,0.018,102.5
2020-12-05T02:46:03,42.805,6.029,0.011,0.002,0.005,99.0,107.0,100.0,13.4,1505.4,324.5,-0.7,1.8,2470.381,13.34,0.011,79.7
2020-12-05T02:49:03,42.805,6.029,-0.01,0.001,-0.011,102.0,107.0,99.0,13.4,1505.4,326.5,-0.7,1.8,2470.384,13.34,0.01,275.7
2020-12-05T02:52:03,42.805,6.029,0.023,0.002,0.024,100.0,109.0,98.0,13.4,1505.4,324.3,-0.7,1.8,2470.41,13.34,0.023,85.0
2020-12-05T02:55:03,42.805,6.029,0.041,0.002,0.038,101.0,108.0,99.0,13.4,1505.4,325.6,-0.7,1.8,2470.407,13.34,0.041,87.2
2020-12-05T02:58:03,42.805,6.029,0.023,0.001,0.022,101.0,108.0,100.0,13.4,1505.4,324.8,-0.7,1.9,2470.373,13.34,0.023,87.5
2020-12-05T03:04:03,42.805,6.029,0.03,-0.006,0.004,99.0,108.0,98.0,13.4,1505.3,326.3,-0.8,1.8,2470.408,13.32,0.03,101.3
2020-12-05T03:07:03,42.805,6.029,-0.015,0.001,0.021,102.0,107.0,98.0,13.4,1505.3,324.4,-0.7,1.8,2470.439,13.33,0.015,273.8
2020-12-05T03:10:03,42.805,6.029,-0.008,0.004,-0.023,99.0,109.0,99.0,13.4,1505.3,326.3,-0.7,1.9,2470.372,13.33,0.008,296.6
2020-12-05T03:13:03,42.805,6.029,0.015,0.009,0.014,101.0,107.0,98.0,13.4,1505.4,323.7,-0.7,1.8,2470.382,13.34,0.017,59.0
2020-12-05T03:16:03,42.805,6.029,-0.027,0.006,-0.004,100.0,109.0,98.0,13.4,1505.4,325.0,-0.7,1.8,2470.429,13.34,0.027,282.5
2020-12-05T03:19:03,42.805,6.029,0.04,0.007,0.05,103.0,106.0,98.0,13.4,1505.4,325.9,-0.7,1.8,2470.349,13.34,0.04,80.1
2020-12-05T03:22:03,42.805,6.029,-0.019,0.013,-0.016,100.0,107.0,99.0,13.4,1505.4,324.2,-0.7,1.8,2470.386,13.34,0.023,304.4
2020-12-05T03:25:03,42.805,6.029,0.032,0.004,0.037,100.0,109.0,97.0,13.4,1505.4,326.7,-0.7,1.8,2470.401,13.34,0.032,82.9
2020-12-05T03:28:03,42.805,6.029,0.0,-0.01,-0.01,100.0,107.0,99.0,13.4,1505.4,327.5,-0.7,1.8,2470.35,13.34,0.01,180.0
2020-12-05T03:31:03,42.805,6.029,0.029,0.007,0.057,101.0,108.0,99.0,13.3,1505.4,328.0,-0.7,1.8,2470.392,13.34,0.029,76.4
2020-12-05T03:34:03,42.805,6.029,0.0,0.009,0.009,99.0,107.0,99.0,13.4,1505.4,328.2,-0.7,1.8,2470.342,13.34,0.009,0.0
2020-12-05T03:37:03,42.805,6.029,0.013,0.005,0.031,101.0,109.0,100.0,13.4,1505.4,327.6,-0.7,1.8,2470.342,13.34,0.013,69.0
2020-12-05T03:40:03,42.805,6.029,-0.012,0.021,0.009,101.0,107.0,99.0,13.4,1505.4,325.4,-0.7,1.9,2470.389,13.35,0.024,330.3
2020-12-05T03:43:03,42.805,6.029,0.035,-0.008,0.035,100.0,108.0,100.0,13.4,1505.4,327.2,-0.7,1.8,2470.383,13.35,0.035,102.9
2020-12-05T03:46:03,42.805,6.029,0.002,0.023,0.03,101.0,107.0,100.0,13.4,1505.4,325.6,-0.7,1.8,2470.375,13.35,0.023,5.0
2020-12-05T03:49:03,42.805,6.029,-0.018,-0.018,0.004,104.0,106.0,99.0,13.4,1505.4,327.6,-0.7,1.8,2470.348,13.35,0.025,225.0
2020-12-05T03:52:03,42.805,6.029,0.039,0.005,0.023,101.0,108.0,99.0,13.4,1505.4,325.6,-0.7,1.8,2470.39,13.34,0.039,82.7
2020-12-05T03:55:03,42.805,6.029,0.022,0.003,0.074,101.0,107.0,99.0,13.4,1505.4,325.5,-0.7,1.8,2470.39,13.35,0.022,82.2
2020-12-05T03:58:03,42.805,6.029,-0.038,-0.001,-0.045,101.0,106.0,99.0,13.3,1505.4,322.8,-0.8,1.8,2470.403,13.35,0.038,268.5
2020-12-05T04:04:03,42.805,6.029,0.023,-0.021,0.009,101.0,106.0,99.0,13.4,1505.3,323.8,-0.8,1.8,2470.389,13.33,0.031,132.4
2020-12-05T04:07:03,42.805,6.029,-0.019,-0.003,-0.012,101.0,108.0,98.0,13.4,1505.3,324.2,-0.7,1.8,2470.409,13.33,0.019,261.0
2020-12-05T04:10:03,42.805,6.029,-0.046,-0.004,-0.063,98.0,108.0,100.0,13.4,1505.4,324.8,-0.7,1.8,2470.431,13.34,0.046,265.0
2020-12-05T04:13:03,42.805,6.029,0.018,0.004,0.017,101.0,106.0,99.0,13.4,1505.4,322.9,-0.7,1.8,2470.38,13.34,0.018,77.5
2020-12-05T04:16:03,42.805,6.029,-0.037,-0.009,-0.041,100.0,106.0,98.0,13.4,1505.4,324.7,-0.7,1.8,2470.387,13.34,0.038,256.3
2020-12-05T04:19:03,42.805,6.029,0.046,0.007,0.064,100.0,107.0,100.0,13.4,1505.4,325.6,-0.7,1.8,2470.395,13.34,0.046,81.3
2020-12-05T04:22:03,42.805,6.029,-0.003,-0.005,-0.01,100.0,109.0,98.0,13.3,1505.4,328.5,-0.7,1.9,2470.446,13.34,0.005,211.0
2020-12-05T04:25:03,42.805,6.029,-0.005,0.005,0.028,101.0,107.0,99.0,13.4,1505.4,323.5,-0.7,1.8,2470.36,13.34,0.007,315.0
2020-12-05T04:28:03,42.805,6.029,-0.027,-0.009,-0.012,102.0,106.0,99.0,13.4,1505.4,323.3,-0.7,1.8,2470.369,13.34,0.028,251.6
2020-12-05T04:31:03,42.805,6.029,0.025,0.004,0.02,101.0,108.0,99.0,13.4,1505.4,325.4,-0.7,1.8,2470.389,13.34,0.025,80.9
2020-12-05T04:34:03,42.805,6.029,-0.003,0.011,-0.004,100.0,109.0,99.0,13.4,1505.4,324.5,-0.7,1.9,2470.421,13.34,0.011,344.7
2020-12-05T04:37:03,42.805,6.029,0.008,-0.022,0.022,100.0,107.0,99.0,13.4,1505.4,325.6,-0.7,1.8,2470.37,13.34,0.023,160.0
2020-12-05T04:40:03,42.805,6.029,-0.012,0.0,-0.008,101.0,106.0,99.0,13.4,1505.4,327.4,-0.7,1.8,2470.414,13.34,0.012,270.0
2020-12-05T04:43:03,42.805,6.029,-0.005,0.004,0.014,101.0,107.0,99.0,13.4,1505.4,323.4,-0.7,1.8,2470.397,13.34,0.006,308.7
2020-12-05T04:46:03,42.805,6.029,0.027,0.011,0.044,100.0,109.0,98.0,13.4,1505.4,326.2,-0.7,1.9,2470.414,13.34,0.029,67.8
2020-12-05T04:49:03,42.805,6.029,-0.015,0.005,0.012,102.0,117.0,98.0,13.4,1505.4,325.3,-0.7,1.8,2470.429,13.34,0.015,288.4
2020-12-05T04:52:03,42.805,6.029,-0.007,0.008,0.021,100.0,108.0,99.0,13.4,1505.4,324.6,-0.7,1.8,2470.403,13.34,0.01,318.8
2020-12-05T04:55:03,42.805,6.029,-0.004,0.0,0.03,102.0,106.0,100.0,13.4,1505.4,326.1,-0.7,1.8,2470.354,13.35,0.004,270.0
2020-12-05T04:58:03,42.805,6.029,0.073,-0.003,0.054,100.0,107.0,99.0,13.4,1505.4,324.6,-0.7,1.9,2470.418,13.34,0.073,92.4
2020-12-05T05:04:03,42.805,6.029,-0.001,0.017,0.021,101.0,108.0,98.0,13.4,1505.3,324.5,-0.7,1.8,2470.431,13.33,0.017,356.6
2020-12-05T05:07:03,42.805,6.029,-0.011,0.002,0.016,102.0,107.0,99.0,13.3,1505.3,324.2,-0.7,1.8,2470.431,13.33,0.011,280.3
2020-12-05T05:10:03,42.805,6.029,-0.025,0.009,-0.007,101.0,108.0,99.0,13.4,1505.4,326.2,-0.7,1.8,2470.445,13.34,0.026,289.8
2020-12-05T05:13:03,42.805,6.029,-0.034,0.003,-0.027,101.0,108.0,99.0,13.4,1505.4,327.8,-0.7,1.8,2470.439,13.34,0.034,275.0
2020-12-05T05:16:03,42.805,6.029,-0.011,0.016,-0.016,101.0,107.0,100.0,13.4,1505.4,323.6,-0.7,1.8,2470.433,13.34,0.019,325.5
2020-12-05T05:19:03,42.805,6.029,-0.037,-0.009,-0.002,100.0,107.0,99.0,13.4,1505.4,324.5,-0.7,1.8,2470.383,13.34,0.038,256.3
2020-12-05T05:22:03,42.805,6.029,-0.053,-0.007,-0.053,101.0,107.0,100.0,13.3,1505.4,323.2,-0.7,1.8,2470.441,13.34,0.053,262.5
2020-12-05T05:25:03,42.805,6.029,-0.034,-0.001,-0.048,102.0,108.0,98.0,13.4,1505.4,325.0,-0.7,1.9,2470.452,13.34,0.034,268.3
2020-12-05T05:28:03,42.805,6.029,0.015,-0.003,0.018,99.0,109.0,99.0,13.4,1505.4,325.0,-0.7,1.8,2470.468,13.34,0.015,101.3
2020-12-05T05:31:03,42.805,6.029,-0.044,-0.006,-0.059,101.0,108.0,98.0,13.4,1505.4,325.3,-0.7,1.8,2470.422,13.34,0.044,262.2
2020-12-05T05:34:03,42.805,6.029,-0.03,0.017,0.014,99.0,107.0,99.0,13.4,1505.4,326.4,-0.7,1.8,2470.407,13.34,0.034,299.5
2020-12-05T05:37:03,42.805,6.029,-0.032,0.02,-0.019,101.0,107.0,99.0,13.3,1505.4,326.1,-0.7,1.8,2470.357,13.34,0.037,302.0
2020-12-05T05:40:03,42.805,6.029,-0.026,0.005,-0.026,100.0,108.0,99.0,13.4,1505.4,325.6,-0.7,1.8,2470.419,13.34,0.026,280.9
2020-12-05T05:43:03,42.805,6.029,-0.044,-0.003,-0.04,102.0,107.0,99.0,13.4,1505.4,324.7,-0.7,1.8,2470.431,13.34,0.044,266.1
2020-12-05T05:46:03,42.805,6.029,-0.012,-0.01,0.002,100.0,106.0,100.0,13.3,1505.4,326.1,-0.7,1.9,2470.427,13.34,0.015,230.2
2020-12-05T05:49:03,42.805,6.029,-0.054,0.027,-0.018,100.0,108.0,99.0,13.4,1505.4,326.9,-0.7,1.8,2470.428,13.34,0.06,296.6
2020-12-05T05:52:03,42.805,6.029,-0.046,-0.005,-0.023,98.0,107.0,98.0,13.3,1505.4,326.3,-0.7,1.8,2470.464,13.34,0.046,263.8
2020-12-05T05:55:03,42.805,6.029,-0.05,0.008,0.004,100.0,107.0,97.0,13.4,1505.4,327.0,-0.7,1.8,2470.455,13.34,0.05,279.1
2020-12-05T05:58:03,42.805,6.029,-0.048,-0.006,-0.066,100.0,106.0,99.0,13.4,1505.4,323.7,-0.7,1.8,2470.465,13.34,0.048,262.9
2020-12-05T06:04:03,42.805,6.029,-0.082,-0.002,-0.067,100.0,107.0,99.0,13.4,1505.3,325.3,-0.8,1.8,2470.453,13.32,0.082,268.6
2020-12-05T06:07:03,42.805,6.029,-0.048,-0.011,-0.059,100.0,107.0,98.0,13.3,1505.3,324.2,-0.8,1.8,2470.484,13.33,0.049,257.1
2020-12-05T06:10:03,42.805,6.029,-0.04,0.005,-0.011,101.0,107.0,99.0,13.4,1505.3,323.2,-0.7,1.8,2470.452,13.33,0.04,277.1
2020-12-05T06:13:03,42.805,6.029,-0.042,0.003,-0.027,101.0,107.0,99.0,13.4,1505.3,325.4,-0.7,1.8,2470.457,13.33,0.042,274.1
2020-12-05T06:16:03,42.805,6.029,-0.03,0.0,-0.035,103.0,106.0,98.0,13.4,1505.4,323.1,-0.7,1.8,2470.443,13.34,0.03,270.0
2020-12-05T06:19:03,42.805,6.029,-0.041,-0.005,-0.038,101.0,106.0,98.0,13.4,1505.4,325.6,-0.7,1.9,2470.528,13.34,0.041,263.0
2020-12-05T06:22:03,42.805,6.029,-0.033,-0.015,-0.062,102.0,106.0,99.0,13.4,1505.4,327.2,-0.7,1.8,2470.47,13.34,0.036,245.6
2020-12-05T06:25:03,42.805,6.029,-0.031,0.004,-0.03,101.0,106.0,100.0,13.4,1505.4,325.2,-0.7,1.8,2470.455,13.34,0.031,277.3
2020-12-05T06:28:03,42.805,6.029,-0.042,-0.001,-0.014,101.0,107.0,99.0,13.4,1505.4,326.7,-0.7,1.9,2470.513,13.34,0.042,268.6
2020-12-05T06:31:03,42.805,6.029,-0.027,0.009,0.019,101.0,107.0,99.0,13.4,1505.4,326.5,-0.7,1.8,2470.483,13.34,0.028,288.4
2020-12-05T06:34:03,42.805,6.029,-0.03,-0.008,-0.007,102.0,106.0,99.0,13.4,1505.4,327.5,-0.7,1.8,2470.479,13.34,0.031,255.1
2020-12-05T06:37:03,42.805,6.029,-0.005,0.006,0.031,100.0,107.0,99.0,13.3,1505.4,325.8,-0.6,1.8,2470.483,13.34,0.007,320.2
2020-12-05T06:40:03,42.805,6.029,-0.011,-0.007,-0.024,101.0,107.0,98.0,13.4,1505.4,323.0,-0.7,1.8,2470.472,13.34,0.013,237.5
2020-12-05T06:43:03,42.805,6.029,-0.034,-0.008,-0.059,100.0,106.0,99.0,13.4,1505.4,326.1,-0.7,1.8,2470.428,13.34,0.034,256.8
2020-12-05T06:46:03,42.805,6.029,-0.015,-0.004,-0.021,101.0,106.0,99.0,13.4,1505.4,326.6,-0.7,1.8,2470.454,13.34,0.015,255.1
2020-12-05T06:49:03,42.805,6.029,-0.027,-0.013,-0.033,101.0,106.0,99.0,13.3,1505.4,326.0,-0.7,1.9,2470.489,13.34,0.029,244.3
2020-12-05T06:52:03,42.805,6.029,-0.043,0.016,-0.004,103.0,105.0,99.0,13.4,1505.4,326.9,-0.7,1.8,2470.448,13.34,0.045,290.4
2020-12-05T06:55:03,42.805,6.029,-0.036,0.005,0.021,100.0,105.0,98.0,13.3,1505.4,326.3,-0.7,1.8,2470.5,13.34,0.036,277.9
2020-12-05T06:58:03,42.805,6.029,-0.047,0.005,-0.048,100.0,105.0,98.0,13.4,1505.4,327.2,-0.7,1.8,2470.437,13.34,0.047,276.1
2020-12-05T07:04:03,42.805,6.029,-0.05,0.014,-0.03,101.0,105.0,99.0,13.4,1505.3,326.0,-0.7,1.8,2470.501,13.32,0.051,285.6
2020-12-05T07:07:03,42.805,6.029,-0.051,-0.013,-0.021,105.0,106.0,100.0,13.3,1505.3,327.2,-0.7,1.8,2470.494,13.33,0.052,255.7
2020-12-05T07:10:03,42.805,6.029,-0.001,0.014,0.0,101.0,107.0,99.0,13.4,1505.3,326.7,-0.7,1.8,2470.514,13.33,0.014,355.9
2020-12-05T07:13:03,42.805,6.029,-0.046,0.004,-0.046,100.0,106.0,99.0,13.4,1505.3,325.8,-0.7,1.8,2470.532,13.33,0.046,275.0
2020-12-05T07:16:03,42.805,6.029,-0.001,0.027,0.043,100.0,107.0,99.0,13.4,1505.3,327.0,-0.7,1.8,2470.531,13.33,0.027,357.9
2020-12-05T07:19:03,42.805,6.029,-0.042,-0.014,-0.036,102.0,107.0,99.0,13.4,1505.4,322.9,-0.7,1.8,2470.518,13.34,0.044,251.6
2020-12-05T07:22:03,42.805,6.029,0.004,0.013,0.04,99.0,109.0,98.0,13.3,1505.4,323.5,-0.7,1.8,2470.535,13.34,0.013,17.1
2020-12-05T07:25:03,42.805,6.029,-0.03,-0.002,-0.037,100.0,106.0,100.0,13.3,1505.4,327.0,-0.7,1.8,2470.519,13.34,0.03,266.2
2020-12-05T07:28:03,42.805,6.029,-0.001,-0.005,-0.013,101.0,107.0,99.0,13.3,1505.4,327.9,-0.7,1.8,2470.475,13.34,0.005,191.3
2020-12-05T07:31:03,42.805,6.029,-0.055,0.015,-0.015,100.0,106.0,99.0,13.4,1505.4,324.2,-0.7,1.8,2470.53,13.34,0.057,285.3
2020-12-05T07:34:03,42.805,6.029,-0.002,0.014,-0.02,100.0,105.0,99.0,13.3,1505.4,323.4,-0.7,1.8,2470.554,13.34,0.014,351.9
2020-12-05T07:37:03,42.805,6.029,-0.023,-0.022,-0.054,101.0,105.0,99.0,13.4,1505.4,324.8,-0.7,1.8,2470.546,13.34,0.031,226.3
2020-12-05T07:40:03,42.805,6.029,-0.035,0.0,-0.016,102.0,103.0,100.0,13.4,1505.4,323.4,-0.7,1.8,2470.52,13.34,0.035,270.0
2020-12-05T07:43:03,42.805,6.029,-0.031,0.002,-0.018,100.0,106.0,99.0,13.4,1505.4,324.4,-0.7,1.8,2470.532,13.34,0.031,273.7
2020-12-05T07:46:03,42.805,6.029,-0.006,0.003,0.046,100.0,105.0,99.0,13.4,1505.4,325.6,-0.7,1.8,2470.535,13.34,0.006,296.6
2020-12-05T07:49:03,42.805,6.029,-0.043,0.0,-0.024,100.0,105.0,99.0,13.3,1505.3,324.9,-0.7,1.8,2470.532,13.33,0.043,270.0
2020-12-05T07:52:03,42.805,6.029,-0.009,-0.006,-0.045,100.0,105.0,98.0,13.3,1505.4,324.3,-0.7,1.8,2470.549,13.34,0.01,236.3
2020-12-05T07:55:03,42.805,6.029,0.006,-0.019,-0.022,102.0,105.0,98.0,13.3,1505.4,327.2,-0.7,1.8,2470.539,13.34,0.019,162.5
2020-12-05T07:58:03,42.805,6.029,0.008,0.022,0.009,100.0,104.0,100.0,13.4,1505.4,322.8,-0.8,1.8,2470.508,13.34,0.023,20.0
2020-12-05T08:04:03,42.805,6.029,-0.033,0.011,-0.001,101.0,105.0,100.0,13.4,1505.3,327.1,-0.7,1.8,2470.615,13.32,0.034,288.4
2020-12-05T08:07:03,42.805,6.029,-0.031,0.007,-0.062,102.0,105.0,100.0,13.4,1505.3,326.1,-0.7,1.8,2470.584,13.32,0.031,282.7
2020-12-05T08:10:03,42.805,6.029,-0.036,0.017,0.001,104.0,106.0,98.0,13.4,1505.3,324.8,-0.7,1.9,2470.521,13.33,0.039,295.3
2020-12-05T08:13:03,42.805,6.029,-0.021,0.007,0.001,101.0,104.0,100.0,13.3,1505.3,325.0,-0.7,1.8,2470.577,13.33,0.022,288.4
2020-12-05T08:16:03,42.805,6.029,-0.021,-0.007,-0.011,101.0,106.0,100.0,13.3,1505.3,325.2,-0.7,1.8,2470.566,13.33,0.022,251.6
2020-12-05T08:19:03,42.805,6.029,-0.007,0.0,0.001,100.0,106.0,99.0,13.3,1505.3,326.4,-0.7,1.8,2470.554,13.33,0.007,270.0
2020-12-05T08:22:03,42.805,6.029,-0.012,0.033,0.054,102.0,105.0,99.0,13.4,1505.3,326.5,-0.7,1.8,2470.55,13.33,0.035,340.0
2020-12-05T08:25:03,42.805,6.029,-0.012,-0.011,-0.014,102.0,105.0,99.0,13.4,1505.3,326.6,-0.7,1.8,2470.578,13.33,0.016,227.5
2020-12-05T08:28:03,42.805,6.029,-0.021,0.016,0.005,101.0,105.0,99.0,13.4,1505.3,326.5,-0.7,1.8,2470.59,13.33,0.026,307.3
2020-12-05T08:31:03,42.805,6.029,0.006,0.01,0.0,100.0,105.0,99.0,13.4,1505.3,326.0,-0.7,1.8,2470.589,13.33,0.011,31.0
2020-12-05T08:34:03,42.805,6.029,-0.012,0.021,0.008,102.0,106.0,99.0,13.4,1505.3,326.4,-0.7,1.8,2470.593,13.33,0.024,330.3
2020-12-05T08:37:03,42.805,6.029,0.005,0.013,0.039,102.0,107.0,99.0,13.4,1505.3,325.6,-0.7,1.8,2470.594,13.33,0.013,21.0
2020-12-05T08:40:03,42.805,6.029,0.0,0.0,-0.038,101.0,106.0,100.0,13.4,1505.3,328.0,-0.7,1.9,2470.578,13.33,0.0,0.0
2020-12-05T08:43:03,42.805,6.029,0.006,-0.005,-0.029,101.0,106.0,99.0,13.4,1505.3,323.3,-0.7,1.8,2470.562,13.33,0.007,129.8
2020-12-05T08:46:03,42.805,6.029,0.013,0.031,0.029,101.0,105.0,99.0,13.3,1505.3,325.1,-0.7,1.9,2470.579,13.33,0.033,22.7
2020-12-05T08:49:03,42.805,6.029,-0.009,0.021,0.004,101.0,107.0,99.0,13.3,1505.3,324.2,-0.7,1.9,2470.592,13.33,0.022,336.8
2020-12-05T08:52:03,42.805,6.029,-0.025,0.013,-0.011,100.0,106.0,100.0,13.4,1505.3,328.2,-0.7,1.8,2470.632,13.33,0.028,297.5
2020-12-05T08:55:03,42.805,6.029,-0.026,0.012,0.008,100.0,105.0,100.0,13.4,1505.3,323.5,-0.7,1.8,2470.618,13.33,0.028,294.8
2020-12-05T08:58:03,42.805,6.029,-0.006,0.002,-0.025,100.0,107.0,99.0,13.4,1505.4,326.2,-0.7,1.8,2470.561,13.34,0.006,288.4
2020-12-05T09:04:03,42.805,6.029,-0.025,0.03,0.004,102.0,106.0,99.0,13.4,1505.3,325.9,-0.8,1.8,2470.611,13.32,0.039,320.2
2020-12-05T09:07:03,42.805,6.029,0.01,0.003,-0.011,101.0,107.0,98.0,13.4,1505.3,326.5,-0.7,1.8,2470.667,13.32,0.01,73.3
2020-12-05T09:10:03,42.805,6.029,-0.008,-0.003,0.009,100.0,106.0,99.0,13.4,1505.3,327.8,-0.7,1.8,2470.6,13.33,0.008,249.4
2020-12-05T09:13:03,42.805,6.029,-0.008,0.004,-0.02,100.0,105.0,99.0,13.4,1505.3,324.7,-0.7,1.8,2470.61,13.33,0.008,296.6
2020-12-05T09:16:03,42.805,6.029,-0.032,-0.004,0.003,102.0,105.0,100.0,13.4,1505.3,322.9,-0.7,1.8,2470.593,13.33,0.032,262.9
2020-12-05T09:19:03,42.805,6.029,-0.029,0.001,-0.014,101.0,106.0,99.0,13.4,1505.3,326.0,-0.7,1.8,2470.571,13.33,0.029,272.0
2020-12-05T09:22:03,42.805,6.029,-0.022,0.014,-0.005,100.0,106.0,99.0,13.3,1505.3,326.2,-0.7,1.8,2470.619,13.33,0.026,302.5
2020-12-05T09:25:03,42.805,6.029,0.0,-0.014,-0.028,100.0,107.0,99.0,13.4,1505.3,325.6,-0.7,1.8,2470.592,13.33,0.014,180.0
2020-12-05T09:28:03,42.805,6.029,-0.029,0.011,-0.009,101.0,105.0,99.0,13.4,1505.3,328.0,-0.7,1.8,2470.652,13.33,0.031,290.8
2020-12-05T09:31:03,42.805,6.029,-0.001,0.01,-0.004,101.0,105.0,101.0,13.3,1505.3,324.1,-0.7,1.8,2470.634,13.33,0.01,354.3
2020-12-05T09:34:03,42.805,6.029,-0.031,-0.011,0.016,101.0,107.0,99.0,13.3,1505.3,325.5,-0.7,1.8,2470.591,13.33,0.032,250.5
2020-12-05T09:37:03,42.805,6.029,0.0,0.027,0.015,101.0,107.0,99.0,13.4,1505.3,324.9,-0.7,1.8,2470.609,13.33,0.026,0.0
2020-12-05T09:40:03,42.805,6.029,-0.009,-0.006,0.009,101.0,107.0,99.0,13.3,1505.3,325.4,-0.7,1.8,2470.623,13.33,0.01,236.3
2020-12-05T09:43:03,42.805,6.029,-0.019,0.004,-0.021,101.0,105.0,99.0,13.4,1505.3,327.8,-0.7,1.8,2470.641,13.33,0.019,281.9
2020-12-05T09:46:03,42.805,6.029,-0.016,0.025,0.015,102.0,105.0,99.0,13.4,1505.3,324.2,-0.7,1.8,2470.59,13.33,0.029,327.4
2020-12-05T09:49:03,42.805,6.029,-0.025,0.006,0.01,101.0,105.0,99.0,13.3,1505.3,325.1,-0.7,1.8,2470.606,13.33,0.025,283.5
2020-12-05T09:52:03,42.805,6.029,-0.023,0.009,-0.04,101.0,107.0,99.0,13.4,1505.3,328.1,-0.7,1.8,2470.588,13.33,0.024,291.4
2020-12-05T09:55:03,42.805,6.029,-0.001,0.003,0.008,100.0,105.0,99.0,13.4,1505.3,323.0,-0.7,1.8,2470.637,13.33,0.003,341.6
2020-12-05T09:58:03,42.805,6.029,-0.036,0.008,-0.02,102.0,106.0,100.0,13.3,1505.3,323.1,-0.7,1.9,2470.599,13.33,0.036,282.5
2020-12-05T10:04:03,42.805,6.029,-0.021,-0.002,-0.019,102.0,106.0,100.0,13.4,1505.3,322.9,-0.7,1.9,2470.641,13.31,0.021,264.6